Weather History for North Platte, NE

Change the Weather History Date:

Monday, October 27, 2014

  Actual Average Record
Temperature  
Mean Temperature 44 °F 45 °F  
Max Temperature 60 °F 60 °F 85 °F (1983)
Min Temperature 28 °F 29 °F 11 °F (1925)
Degree Days  
Heating Degree Days 21 20  
Month to date heating degree days 303 412  
Since 1 July heating degree days 443 583  
Cooling Degree Days 0 0  
Month to date cooling degree days 0 0  
Year to date cooling degree days 744 765  
Moisture  
Dew Point 35 °F    
Average Humidity 57    
Maximum Humidity 78    
Minimum Humidity 36    
Precipitation  
Precipitation 0.00 in 0.04 in 1.14 in (1881)
Month to date precipitation 0.73 1.40  
Year to date precipitation 20.40 19.03  
Snow  
Snow 0.00 in 0.10 in 1.00 in (1976)
Month to date snowfall 0.0 1.7  
Since 1 July snowfall T 1.9  
Since 1 September snowfall T 1.9  
Snow Depth 0.00 in    
Sea Level Pressure  
Sea Level Pressure 29.83 in    
Wind  
Wind Speed 12 mph (NW)    
Max Wind Speed 25 mph    
Max Gust Speed 33 mph    
Visibility 10 miles    
Events      
T = Trace of Precipitation, MM = Missing Value Source: NWS Daily Summary

Daily Weather History Graph

Daily Weather History Graph

Search for Another Location

Airport:

Trip Planner

Search our weather history database for the weather conditions in past years. The results will help you decide how hot, cold, wet, or windy it might be!

Date:

Astronomy

Oct. 27, 2014 Rise Set
Actual Time 8:07 AM CDT 6:44 PM CDT
Civil Twilight 7:39 AM CDT 7:12 PM CDT
Nautical Twilight 7:07 AM CDT 7:45 PM CDT
Astronomical Twilight 6:35 AM CDT 8:17 PM CDT
Moon 11:46 AM CDT (10/27) 9:51 PM CDT (10/27)
Length of Visible Light 11h 33m
Length of Day
10h 36m
Waxing Crescent, 15% of the Moon is Illuminated
Oct 27
Waxing Crescent
Oct 30
First Quarter
Nov 6
Full
Nov 14
Last Quarter
Nov 22
New

Hourly Weather History & Observations

Time (CDT) Temp. Windchill Dew Point Humidity Pressure Visibility Wind Dir Wind Speed Gust Speed Precip Events Conditions
12:53 AM 53.1 °F - 43.0 °F 69% 29.61 in 10.0 mi NW 4.6 mph - N/A   Overcast
1:53 AM 57.9 °F - 39.0 °F 49% 29.61 in 10.0 mi NNW 5.8 mph - N/A   Mostly Cloudy
2:53 AM 55.9 °F - 39.9 °F 55% 29.65 in 10.0 mi NNW 8.1 mph - N/A   Clear
3:53 AM 55.0 °F - 39.0 °F 55% 29.66 in 10.0 mi NNW 15.0 mph 20.7 mph N/A   Clear
4:53 AM 52.0 °F - 41.0 °F 66% 29.70 in 10.0 mi NW 15.0 mph - N/A   Scattered Clouds
5:53 AM 52.0 °F - 39.0 °F 61% 29.73 in 10.0 mi NW 16.1 mph 24.2 mph N/A   Overcast
6:53 AM 52.0 °F - 37.9 °F 59% 29.75 in 10.0 mi NNW 16.1 mph 26.5 mph N/A   Overcast
7:53 AM 46.9 °F - 39.0 °F 74% 29.75 in 10.0 mi NW 6.9 mph - N/A   Mostly Cloudy
8:53 AM 50.0 °F - 41.0 °F 71% 29.77 in 10.0 mi WNW 4.6 mph - N/A   Mostly Cloudy
9:53 AM 52.0 °F - 39.9 °F 63% 29.79 in 10.0 mi WNW 10.4 mph - N/A   Overcast
10:53 AM 54.0 °F - 37.9 °F 55% 29.80 in 10.0 mi NNW 20.7 mph - N/A   Overcast
11:53 AM 57.0 °F - 35.1 °F 44% 29.81 in 10.0 mi NNW 19.6 mph 25.3 mph 0.00 in   Scattered Clouds
12:53 PM 55.9 °F - 35.1 °F 45% 29.83 in 10.0 mi NNW 21.9 mph 27.6 mph N/A   Mostly Cloudy
1:53 PM 57.9 °F - 33.1 °F 39% 29.83 in 10.0 mi NNW 17.3 mph 27.6 mph N/A   Mostly Cloudy
2:53 PM 57.0 °F - 33.1 °F 40% 29.85 in 10.0 mi NNW 15.0 mph - N/A   Mostly Cloudy
3:53 PM 55.9 °F - 33.1 °F 42% 29.86 in 10.0 mi NNW 12.7 mph - N/A   Clear
4:53 PM 57.0 °F - 30.9 °F 37% 29.88 in 10.0 mi NNW 18.4 mph 25.3 mph N/A   Scattered Clouds
5:53 PM 54.0 °F - 28.9 °F 38% 29.92 in 10.0 mi NNW 13.8 mph - N/A   Clear
6:53 PM 48.2 °F - 30.2 °F 50% 29.95 in 10.0 mi WNW 5.8 mph - N/A   Clear
7:53 PM 41.0 °F 37.1 °F 30.0 °F 65% 29.99 in 10.0 mi NW 5.8 mph - N/A   Clear
8:53 PM 35.1 °F 28.6 °F 27.0 °F 72% 30.02 in 10.0 mi NW 8.1 mph - N/A   Clear
9:53 PM 36.0 °F 32.1 °F 27.0 °F 70% 30.04 in 10.0 mi NW 4.6 mph - N/A   Clear
10:53 PM 30.9 °F 26.2 °F 25.0 °F 79% 30.06 in 10.0 mi WNW 4.6 mph - N/A   Clear
11:53 PM 32.0 °F 25.6 °F 25.0 °F 75% 30.07 in 10.0 mi NW 6.9 mph - N/A   Clear